Погода Бухта Амбарчик

Погода Бухта Амбарчик : погода сейчас, прогноз погоды и архив. Всё, что Вы хотите узнать о погоде Бухта Амбарчик!

Хотите узнать прогноз погоды Бухта Амбарчик? Тогда Вам сюда: Погода Бухта Амбарчик

Поиск расширенной информации на нашем сайте:

Другие новости

Новости СМИ2

Главная страница сайта

Новости сайта

03.07.2017

Напоминаем, что на нашем специализированном сайте Метеоцентр.Азия вы можете получить высокодетализированные автоматические прогнозы погоды по пунктам России, СНГ и мира в авиационном формате (включающие направление и скорость ветра, видимость, явления погоды, количество и форму облачности, нижнюю и верхнюю границу облачности).

Рекомендуем: Подробное описание как подтянуть рулевую рейку тут.

Погода Бухта Амбарчик - сегодня

Время (UTC), дата Ветер
(°,м/с) 
Видим.   Явления Облачность Т
(°С)
Тd
(°С)
f(%) Тe
(°С)
Pmin
(гПа)
dP
(гПа)
Po
(мм)
O2
(г/м3)
Тmin Tmax R s Состояние
почвы
18 19.05.18 160 (Ю) 1{05}  20000 м    ясно 
+1.6 -1.7 79 +2  1015  0.4  759  304           
00 20.05.18 030 (СВ) 2{05}  20000 м    8/0 верхняя 
[Ci fib]
+0 -2.2 85 -1  1015.1  759  306           
03 20.05.18 060 (СВ) 2{03}  20000 м    8/0 верхняя 
[Ci fib]
+0.3 -1.6 87 1014.9  -0.2  759  306           
06 20.05.18 070 (В) 3{04}  20000 м    8/0 средняя, верхняя 
[Ac trans|Ci fib]
+0 -1.2 92 -2  1014.2  -0.7  758  306           
12 20.05.18 090 (В) 5{08}  0500 м  в посл. час туман  ?/?  
-2.5 -2.8 98 -6  1012.2  -1  751  306           
15 20.05.18 080 (В) 7-10{10}  0500 м  туман  ?/?  
-2.5 -2.9 97 -7  1011.2  -1  756  308           
18 20.05.18 090 (В) 6{10}  4000 м  дымка{туман}  10/6 200 м средняя 
[St|Ac und]
-2.8 -3.2 97 -7  1010.4  -0.8  756  308           
21 20.05.18 080 (В) 8{10}  4000 м  дымка  10/6 200 м средняя 
[St|Ac und]
-3.1 -3.7 96 -8  1009.6  -0.9  755  308  -3.3      19  мокрый или
старый снег
50-90% 
03 21.05.18 070 (В) 8-10{13}  20000 м    8/4 200 м средняя, верхняя 
[St|Ac trans|Ci fib]
-1.5 -2.1 96 -6  1008.9  -0.5  755  306           
06 21.05.18 070 (В) 8{10}  20000 м    8/3 200 м средняя, верхняя 
[St|Ac trans|Ci fib]
-1.6 -2.3 95 -6  1008.8  -0.1  754  306           
09 21.05.18 080 (В) 8-10{12}  4000 м  дымка  8/3 200 м средняя, верхняя 
[St|Ac trans|Ci fib]
-1.7 -2.1 97 -6  1008.9  0.1  755  306    -1.2       
15 21.05.18 090 (В) 4{05}  4000 м  дымка  6/3 200 м средняя, верхняя 
[St|Ac trans|Ci fib]
-2.8 -3.2 97 -6  1009  0.2  755  308           
18 21.05.18 110 (В) 3{08}  10 км    6/3 200 м средняя, верхняя 
[St|Ac trans|Ci fib]
-3.5 -4 96 -6  1009.1  755  308           
21 21.05.18 100 (В) 3{03}  20000 м    6/0 верхняя 
[Ci fib]
-0.7 -1.5 94 -3  1009.2  0.2  755  305  -3.8      16  мокрый или
старый снег
50-90% 
00 22.05.18 080 (В) 5{07}  20000 м    4/0 верхняя 
[Ci fib]
+0.5 -1 90 -2  1009.6  0.4  755  304           
03 22.05.18 090 (В) 7{09}  20000 м    3/3 200 м 
[St]
+0.5 -1.4 87 -3  1009.4  -0.2  755  304           
06 22.05.18 110 (В) 4{09}  20000 м    4/0 верхняя 
[Ci fib]
+1.4 -1 84 -1  1009.4  755  303           
12 22.05.18 090 (В) 5{10}  20000 м    8/3 300 м верхняя 
[St|Ci fib]
-1.6 -2.8 92 -5  1010  0.5  755  306           
15 22.05.18 120 (ЮВ) 8-10{12}  20000 м    6/3 300 м верхняя 
[St|Ci fib]
-2.2 -3.1 94 -7  1009.6  -0.4  755  307           
18 22.05.18 090 (В) 4{10}  20000 м    8/0 средняя, верхняя 
[Ac trans|Ci fib]
-2.3 -3.6 91 -5  1009.5  -0.1  755  307           
21 22.05.18 090 (В) 3{07}  20000 м    4/0 верхняя 
[Ci fib]
-0.3 -2.2 87 -2  1009.4  -0.1  755  305  -3.7      14  мокрый или
старый снег
50-90% 
00 23.05.18 070 (В) 3{05}  20000 м    3/0 верхняя 
[Ci fib]
+0.6 -1.2 88 -1  1009.7  0.3  755  304           
03 23.05.18 300 (СЗ) 3{05}  10 км    9/6 200 м верхняя 
[St|Ci fib]
-0.5 -1.9 90 -2  1010.1  0.4  755  305           
06 23.05.18 280 (З) 3{05}  4000 м  дымка  10/10 200 м 
[St]
-0.9 -1.9 93 -3  1010.3  0.2  756  306           
15 23.05.18 080 (В) 4{05}  4000 м  дымка{снег}  10/10 200 м 
[St]
-3.6 -4.1 96 -7  1010.3  -0.4  755  309           
Время (UTC), дата Ветер
(°,м/с) 
Видим.   Явления Облачность Т
(°С)
Тd
(°С)
f(%) Тe
(°С)
Pmin
(гПа)
dP
(гПа)
Po
(мм)
O2
(г/м3)
Тmin Tmax R s Состояние
почвы

Для получения пояснительной информации подведите курсор к названию столбца.

ПОГОДА Бухта Амбарчик - архив

Всё, что Вы хотите узнать о погоде Бухта Амбарчик - удобно и подробно!

Выберите нужную дату (начиная с 1 января 2015* года) и нажмите кнопку "Найти".
Будут отображены архивные сводки погоды по пункту Бухта Амбарчик, начиная с указанной даты.


Отображать данные в формате CSV (для использования в таблицах Excel)


Внимание! Наш архив погоды предназначен исключительно для личного некоммерческого использования в познавательных целях. Если Вам необходимы официальные справки о состоянии погоды (для производственных, юридических, коммерческих и т.п. целей), обращайтесь в органы Росгидромета.

*Примечание: данная дата относится к архиву по метеостанциям СССР (Россия, СНГ, Балтия).
Архив по метеостанциям Зарубежной Европы и Азии (кроме Китая) хранится 10 дней, по другим регионам земного шара (Китай, Африка, Америка, Австралия, Океания) - 1 день.

Бухта Амбарчик - район местоположения метеостанции


Название, широта, долгота, высота метеостанции:
Бухта Амбарчик 69.6°ш. 162.3°д. 23 м над ур. моря [Российская Федерация]

Дополнительная информация

В oтличие oт бoльшинства пoгoдных сайтoв мы публикуем пoдрoбную метеoинфoрмацию в детальнoм прoфессиoнальнoм фoрмате.

Характеристики температуры и влажнoсти вoздуха измеряются на высoте 2 м в тени вдали oт зданий и деревьев.
Скoрoсть ветра измеряется на высoте 10 м (на урoвне рoста челoвека скoрoсть ветра ниже в 1.5-2 раза). Если метеoстанция нахoдится в гoрoде или в лесу, тo скoрoсть ветра занижена на 2-4 м/с пo сравнению с oткрытым местoм. Скoрoсть ветра над акватoриями крупных рек и oзёр, а также на вершинах хoлмoв на 2-5 м/с выше, чем в oбычных услoвиях.
Атмoсфернoе давление в разных тoчках местнoсти мoжет значительнo oтличаться oт давления на метеoстанции, в зависимoсти oт услoвий рельефа (при пoдъёме на 10 м давление пoнижается примернo на 1 мм рт.ст.).